Showing default

IRIDE-MS2-HEO-4, 64582

Orbit data source: Space-Track

IRIDE-MS2-HEO-4, 64582 is an Italian payload satellite in SSO that was launched on Mon, 23 Jun 2025 UTC via an FALCON 9 launch vehicle from the Air Force Western Test Range (AFWTR). Payload-class satellites include a variety of spacecraft equipped with specific instruments for various scientific and technological missions. These include communications satellites like Starlink; space stations such as the ISS; scientific satellites like the Hubble; Earth observation satellites from companies like Planet Labs, Umbra, and HawkEye 360; GPS; miniature CubeSats for education and research; and military/defense satellites.

Loading next visibility...
Identifier
64582, 2025-135BG
Orbit
SSO
Country
Flag of ITIT
Related business
Manufacturer
ArgoTec
Mission
Operational Civil Imaging
Bus & Motor
HAWK, Unknown motor
Mass
65 kg wet, 65 kg dry
Launch date (UTC)
2025-06-23 (10 months ago)
Launch vehicle
FALCON 9
Launch site
Air Force Western Test Range (AFWTR)
Object type
Payload
Rocket body
Debris
Shape & HBR
Box + 2 Pan, 3.0 m
Radar Cross Section
0.683 m², Medium (>0.1 m² and < 1m²)

Expand to show TLE details & history
Last TLE update: 6 hours ago

TLE from 6 hours ago
0 IRIDE-MS2-HEO-4
1 64582U 25135BG  26107.57124748  .00001053  00000-0  10359-3 0  9995
2 64582  97.7645 222.7358 0004718 166.1742 193.9608 14.94193753 44854
Epoch: 2026-04-17T13:42Z
TLE epoch observation values (Epoch: 2026-04-17T13:42:35.782Z)
Latitude
-0.00002°
Longitude
171.38418°
Altitude
591.11 km
Speed
7.563 km/s
True Right ascension
14h 50m 56s
True Declination
0° 00' 00"
Sunlit
Object was in full shadow at epoch
Visualization orbit readout
Latitude
Unknown
Longitude
Unknown
Altitude
Unknown
Speed
Unknown
Apparent Right ascension
Unknown
Apparent Declination
Unknown
Sunlit
N/A
Visualization observer readout
Local Sidereal Time
02:07:15
Azimuth
Unknown
Elevation
Unknown
Doppler factor
Unknown
Orbital elements
Apogee altitude
585.176 km
Perigee altitude
578.609 km
Semi-major axis
6,960.029 km
Eccentricity
0.00047
Inclination
97.7645°
RAAN
222.7358°
Arg. of periapsis
166.1742°
True anomaly
193.94776°
Mean anomaly
193.9608°
Eccentric anomaly
193.95428°
Mean motion
3.73789 °/min
Orbital period
96.31 mins
BSTAR
0.00010359
Loading maneuver chart data...
Computing Atmospheric mass density...
Loading historical data...
Loading historical data...
Loading historical data...
Loading historical data...
Loading historical data...
Loading historical data...
Loading historical data...

Documentation

Showing up to 5 results
|